www.pogodaiklimat.ru

Погода и климат >> Архив погоды >> Иран >> Ilam


ПОГОДА в Ilam

  • Прогноз погоды в Ilam
  • Монитор погоды в Ilam
  • Климат города

АРХИВ ПОГОДЫ в Ilam

Время (UTC), дата Ветер
(напр.,м/с)
 
Видим.   Явления Облачность Т
(С)
Тd
(С)
f
(%)
Тe
(С)
Тes
(С)
Комфортность P
(гПа)
Po
(гПа)
Тmin
(С)
Tmax
(С)
R
(мм)
R24
(мм)
S
(см)
12 14.09 З 4 10 км ясно +35.2 +2.7 13 +32 +37 жарко 1003.9 866.0
15 14.09 З 3 10 км ясно +30.3 -1.2 13 +27 +27 жарко 1005.3 865.8 +36.0
18 14.09 В 1 10 км ясно +21.7 -5.2 16 +20 +20 1006.1 867.4
21 14.09 В 3 10 км ясно +21.0 -6.6 15 +21 +21 комфорт 1005.1 866.2
00 15.09 В 2 10 км ясно +19.0 -5.8 18 +19 +19 1004.5 866.0
03 15.09 В 2 10 км ясно +19.1 -5.8 18 +20 +20 1006.7 866.9 +18.5
06 15.09 В 2 10 км ясно +32.2 +0.3 13 +29 +37 жарко 1006.4 867.9
09 15.09 З 5 10 км ясно +34.9 +4.4 15 +32 +41 жарко 1005.5 867.5
12 15.09 З 5 8000 м пыль ясно +34.1 +4.7 16 +32 +36 жарко 1005.4 866.8
15 15.09 З 3 8000 м пыль ясно +30.3 +4.9 20 +28 +28 жарко 1006.4 866.9 +35.5
18 15.09 Ю 1 10 км ясно +25.2 +1.3 21 +24 +24 комфорт 1005.7 867.9
21 15.09 В 1 10 км ясно +21.5 +0.1 24 +21 +21 комфорт 1004.7 867.9
00 16.09 В 3 10 км ясно +20.4 -0.8 24 +21 +21 комфорт 1004.7 866.4
03 16.09 В 3 10 км ясно +21.0 -0.3 24 +21 +21 комфорт 1006.9 867.7 +20.0
06 16.09 ЮВ 2 10 км ясно +30.3 -0.1 14 +27 +36 жарко 1007.5 868.9
09 16.09 З 4 10 км 4/4 1350 м
[Cu hum]
+35.3 +2.7 13 +32 +39 жарко 1006.3 868.4
12 16.09 З 5 10 км 4/4 1350 м
[Cu hum]
+34.6 +2.2 13 +31 +34 жарко 1005.8 867.5
15 16.09 З 3 10 км ясно +30.7 +0.2 14 +28 +28 жарко 1006.7 867.3 +35.8
18 16.09 В 2 10 км ясно +24.4 -0.7 19 +23 +23 комфорт 1006.8 868.4
21 16.09 В 3 10 км ясно +20.7 -1.8 22 +21 +21 комфорт 1006.0 867.9
00 17.09 В 3 10 км ясно +20.6 -2.5 21 +21 +21 комфорт 1005.6 867.2
03 17.09 В 2 10 км 1/0
[Ac trans]
+20.0 -1.7 23 +21 +21 комфорт 1007.1 867.5 +19.2
06 17.09 ЮВ 2 10 км ясно +30.7 +0.2 14 +28 +36 жарко 1006.4 868.1
09 17.09 ЮЗ 3 10 км 3/3 1350 м
[Cu hum]
+35.3 +2.7 13 +32 +41 жарко 1005.6 867.8
12 17.09 З 7 10 км 6/4 1350 м
[Cu hum Ac As]
+33.4 +1.3 13 +30 +31 жарко 1005.4 866.9
15 17.09 штиль 0 10 км 5/3 1200 м
[Cb calv Ac As]
+29.8 +0.4 15 +27 +27 жарко 1007.3 867.7 +36.0
18 17.09 В 3 10 км ясно +22.6 +1.0 24 +22 +22 комфорт 1007.0 868.3
21 17.09 В 2 10 км ясно +21.6 -0.9 22 +21 +21 комфорт 1006.4 868.3
00 18.09 ЮВ 2 10 км ясно +20.7 -1.2 23 +21 +21 комфорт 1006.5 867.8
03 18.09 ЮВ 2 10 км 5/5 1350 м
[Cu hum]
+20.7 -1.2 23 +21 +21 комфорт 1008.2 868.4 +19.5
06 18.09 ЮВ 2 10 км 5/3 1350 м
[Sc Ac As]
+30.2 +1.6 16 +28 +32 жарко 1008.6 869.4
09 18.09 З 3 10 км 6/3 1350 м
[Sc Ac As]
+33.2 +1.1 13 +30 +36 жарко 1007.8 869.1
12 18.09 З 3 9000 м пыль 8/5 1200 м
[Cb calv Ac As]
+32.9 +0.9 13 +30 +32 жарко 1007.3 868.4
15 18.09 З 4 9000 м пыль 9/6 1200 м
[Cb calv Ac As]
+30.5 0.0 14 +28 +28 жарко 1008.0 868.5 +35.1
18 18.09 В 1 10 км 6/4 1350 м
[Sc Ac As]
+23.4 -0.1 21 +22 +22 комфорт 1007.7 868.7
21 18.09 В 2 10 км ясно +21.2 -1.3 22 +21 +21 комфорт 1007.5 869.2
00 19.09 ЮВ 1 10 км ясно +21.1 -0.8 23 +21 +21 комфорт 1007.6 868.7
03 19.09 ЮВ 2 10 км 4/4 1350 м
[Sc]
+20.9 -1.0 23 +21 +21 комфорт 1008.3 868.8 +19.6
06 19.09 ЮВ 3 10 км 6/3 1200 м
[Sc Ac As]
+29.8 +1.3 16 +27 +31 жарко 1009.9 870.4
09 19.09 СЗ 3 10 км 9/4 1200 м
[Sc Ac As]
+33.6 +1.4 13 +30 +34 жарко 1009.1 870.3
12 19.09 З 5 10 км 9/3 1200 м
[Sc Ac As]
+33.7 +1.5 13 +31 +32 жарко 1007.7 869.0
15 19.09 СЗ 4 10 км 6/3 1200 м
[Sc Ac As]
+30.7 +0.2 14 +28 +28 жарко 1008.7 869.2 +34.8
18 19.09 штиль 0 10 км 5/0
[Ac As]
+24.3 +0.6 21 +23 +23 комфорт 1009.0 870.1
21 19.09 СВ 1 10 км 3/0
[Ac As]
+21.8 -0.2 23 +21 +21 комфорт 1007.8 869.1
00 20.09 В 2 10 км ясно +21.1 -0.8 23 +21 +21 комфорт 1007.5 868.8
03 20.09 ЮВ 2 10 км ясно +20.1 -0.5 25 +21 +21 комфорт 1008.9 869.0 +19.2
06 20.09 ЮВ 1 10 км ясно +30.2 +1.6 16 +28 +37 жарко 1008.3 869.5
09 20.09 СЗ 5 10 км 3/3 1350 м
[Cu hum]
+34.6 +2.2 13 +31 +37 жарко 1007.0 868.8
12 20.09 СВ 6 10 км 6/4 1350 м
[Cu hum Ac As]
+34.0 +1.7 13 +31 +32 жарко 1005.8 867.6
15 20.09 СЗ 5 10 км 3/3 1350 м
[Cu hum]
+31.4 -0.3 13 +28 +28 жарко 1006.5 867.3 +36.2
18 20.09 СЗ 2 10 км ясно +27.5 -0.5 16 +25 +25 комфорт 1006.0 868.3
21 20.09 В 1 10 км ясно +24.0 -1.0 19 +23 +23 комфорт 868.2
00 21.09 С 1 10 км ясно +23.5 -1.4 19 +22 +22 комфорт 1005.1 867.5
03 21.09 В 2 10 км ясно +21.4 -4.6 17 +20 +20 1007.1 868.0 +20.5
06 21.09 ЮВ 1 10 км ясно +31.2 -0.5 13 +28 +37 жарко 1006.0 868.5
09 21.09 С 4 10 км ясно +33.7 +1.5 13 +31 +41 жарко 1005.2 867.7

 

Местоположение метеостанции Ilam (Иран): широта 33.63 долгота 46.43 высота над уровнем моря 1337 м.

В архиве по умолчанию представлена погода в Ilam за последнюю неделю. Архивные данные за месяц целиком и за предыдущие месяцы, начиная с января 2011 года, Вы можете получить, выбрав интересующий диапазон дат из раскрывающегося списка и нажав кнопку "Ввод!".

Внимание! Время в таблицах - всемирное. Для получения местного времени необходимо прибавить поправку, которая в Ilam равна 3.5 ч.

Смотрите также архив погоды в соседних городах и на ближайших метеорологических станциях:

Погода в Badrah (Ирак) (74 км)
Погода в Kermanshah (Иран) (95 км)
Погода в Khanaqin (Ирак) (119 км)
Погода в Ali Al-Gharbi (Ирак) (132 км)
Погода в Ubaydah Bin Al Jarrah (Ирак) (142 км)
Погода в Azizyah (Ирак) (149 км)
Погода в Ayn Al-Tamar (Ирак) (159 км)
Погода в Kut-Al-Hai (Ирак) (166 км)
Погода в Al-Khalis (Ирак) (177 км)
Погода в Halabcha (Ирак) (180 км)

Пояснения к столбцам:

Ветер - указаны скорость ветра в м/с - средняя за 10 мин, порывы в срок и между сроками (в фигурных скобках) и направление, откуда дует ветер: С - северный, СВ - северо-восточный, В - восточный, ЮВ - юго-восточный, Ю - южный, ЮЗ - юго-западный, З - западный, СЗ - северо-западный.
Видимость - горизонтальная дальность видимости в метрах или километрах. При видимости от 1 до 10 км при отсутствии осадков обычно наблюдается дымка, при ухудшении видимости до 1 км и менее - туман. В сухую погоду видимость может ухудшаться дымом, пылью или мглою.
Явления - указаны атмосферные явления, наблюдавшиеся в срок или в последний час перед сроком; фигурными скобками обозначены явления, наблюдавшиеся между сроками (за 1-3 часа до срока); квадратными скобками обозначены град или гололедные отложения с указанием их диаметра в мм.
Облачность - указаны через наклонную черту общая и нижняя облачность в баллах и высота нижней границы облаков в метрах; квадратными скобками обозначены формы облаков: Ci - перистые, Cs - перисто-слоистые, Cc - перисто-кучевые, Ac - высококучевые, As - высокослоистые, Sc - слоисто-кучевые, Ns - слоисто-дождевые, Cu - кучевые, Cb - кучево-дождевые. Подробнее классификацию облаков см. в Атласе облаков (PDF).
T - Температура воздуха - температура, измеренная на высоте 2 м над землей.
Td - Температура точки росы - температура, при понижении до которой содержащийся в воздухе водяной пар достигнет насыщения.
f - Относительная влажность воздуха - влажноcть воздуха, измеренная на высоте 2 м над землей.
Te - Эффективная температура - температура, которую ощущает одетый по сезону человек в тени. Характеристика душности погоды. При расчете учитывается влияние влажности воздуха и скорости ветра на теплоощущения человека.
Tes - Эффективная температура на солнце - температура, которую ощущает человек, с поправкой на солнечный нагрев. Характеристика знойности погоды. Зависит от высоты солнца над горизонтом, облачности и скорости ветра. Ночью, в пасмурную погоду, а также при ветре 12 м/с и более поправка равна нулю.
P - Атмосферное давление - приведенное к уровню моря атмосферное давление.
Po - Атмосферное давление - измеренное на уровне метеостанции атмосферное давление.
Tmin - Минимальная температура - минимум температуры воздуха на высоте 2 м над землей.
Tmax - Максимальная температура - максимум температуры воздуха на высоте 2 м над землей.
R - Количество осадков - Количество выпавших осадков за период времени, мм. При наведении курсора мыши на число - период времени, за который выпало указанное количество осадков.
R24 - Количество осадков - Количество выпавших осадков за 24 часа, мм.
S - Снежный покров - Высота снежного покрова, см. При наведении курсора мыши на число - состояние снежного покрова и степень покрытия местности в баллах.